De Queen, AR

3:44 PM CST on December 14, 2019 (GMT -0600)
Helms Sevier County

Weather History for KDEQ - November, 2019

Change the Weather History Date:

Thursday, November 14, 2019

  Actual Average Record
Temperature  
Mean Temperature 47 °F 53 °F  
Max Temperature 61 °F 66 °F 87 °F (1955)
Min Temperature 33 °F 40 °F 17 °F (1940)
Degree Days  
Heating Degree Days 18 12  
Month to date heating degree days 235 137  
Since 1 July heating degree days 409 270  
Cooling Degree Days 0 0  
Month to date cooling degree days 1 5  
Year to date cooling degree days 2314 1939  
Moisture  
Dew Point 30 °F    
Average Humidity 64    
Maximum Humidity 92    
Minimum Humidity 25    
Precipitation  
Precipitation 0.00 in 0.18 in 2.21 in (1902)
Month to date precipitation 1.66 2.39  
Year to date precipitation 48.39 42.11  
Snow  
Snow 0.00 in - - ()
Month to date snowfall 0.0  
Since 1 July snowfall 0.0  
Since 1 September snowfall 0.0  
Snow Depth 0.00 in    
Sea Level Pressure  
Sea Level Pressure 30.27 in    
Wind  
Wind Speed 2 mph ()    
Max Wind Speed 9 mph    
Max Gust Speed 14 mph    
Visibility 9.7 miles    
Events      
T = Trace of Precipitation, MM = Missing Value Source: Averaged Metar Reports

Daily Weather History Graph

Daily Weather History Graph

Search for Another Location

Airport or City:

Astronomy

Nov. 14, 2019 Rise Set
Actual Time 6:49 AM CST 5:14 PM CST
Civil Twilight 6:22 AM CST 5:41 PM CST
Nautical Twilight 5:52 AM CST 6:11 PM CST
Astronomical Twilight 5:22 AM CST 6:40 PM CST
Moon 7:04 PM CST 8:42 AM CST
Length of Visible Light 11h 18m
Length of Day
10h 25m
Waning Gibbous, 95% of the Moon is Illuminated
Nov 14
Waning Gibbous
Nov 19
Last Quarter
Nov 26
New
Dec 4
First Quarter
Dec 11
Full

Hourly Weather History & Observations

Time (CST) Temp. Windchill Dew Point Humidity Pressure Visibility Wind Dir Wind Speed Gust Speed Precip Events Conditions
12:53 AM 37.9 °F - 26.1 °F 62% 30.21 in 10.0 mi Calm Calm - N/A   Overcast
1:53 AM 39.0 °F 36.8 °F 26.1 °F 60% 30.20 in 10.0 mi ESE 3.5 mph - N/A   Overcast
2:53 AM 39.0 °F 34.8 °F 25.0 °F 57% 30.20 in 10.0 mi SE 5.8 mph - N/A   Overcast
3:05 AM 37.9 °F 34.4 °F 27.0 °F 65% 30.21 in 10.0 mi SSE 4.6 mph - N/A   Overcast
3:53 AM 39.0 °F - 30.0 °F 70% 30.21 in 10.0 mi Calm Calm - N/A   Overcast
4:07 AM 39.0 °F - 30.9 °F 73% 30.21 in 10.0 mi Calm Calm - N/A   Overcast
4:53 AM 39.0 °F - 32.0 °F 76% 30.23 in 10.0 mi Calm Calm - N/A   Overcast
5:49 AM 37.4 °F 34.9 °F 33.8 °F 87% 30.25 in 6.0 mi NW 3.5 mph - N/A   Overcast
5:53 AM 37.0 °F - 34.0 °F 89% 30.25 in 7.0 mi Calm Calm - N/A   Overcast
6:46 AM 37.9 °F - 34.0 °F 86% 30.26 in 10.0 mi Calm Calm - N/A   Overcast
7:02 AM 37.9 °F - 35.1 °F 89% 30.27 in 10.0 mi Calm Calm - N/A   Overcast
7:53 AM 39.0 °F - 35.1 °F 86% 30.28 in 10.0 mi Calm Calm - N/A   Overcast
8:53 AM 41.0 °F - 35.1 °F 79% 30.29 in 10.0 mi Calm Calm - N/A   Overcast
9:53 AM 43.0 °F - 34.0 °F 71% 30.30 in 10.0 mi Calm Calm - N/A   Mostly Cloudy
10:53 AM 48.9 °F - 33.1 °F 54% 30.31 in 10.0 mi Variable 3.5 mph - N/A   Clear
11:53 AM 55.0 °F - 24.1 °F 30% 30.29 in 10.0 mi Variable 3.5 mph - N/A   Clear
12:53 PM 55.9 °F - 24.1 °F 29% 30.26 in 10.0 mi Variable 3.5 mph - N/A   Clear
1:53 PM 59.0 °F - 25.0 °F 27% 30.24 in 10.0 mi NE 4.6 mph - N/A   Clear
2:53 PM 60.1 °F - 25.0 °F 26% 30.24 in 10.0 mi Variable 5.8 mph - N/A   Clear
3:53 PM 59.0 °F - 26.1 °F 28% 30.25 in 10.0 mi NNW 6.9 mph - N/A   Clear
4:53 PM 55.9 °F - 30.9 °F 39% 30.26 in 10.0 mi NNW 5.8 mph - N/A   Clear
5:53 PM 50.0 °F - 32.0 °F 50% 30.30 in 10.0 mi North 5.8 mph - N/A   Clear
6:53 PM 45.0 °F - 32.0 °F 60% 30.32 in 10.0 mi Calm Calm - N/A   Clear
7:53 PM 42.1 °F - 33.1 °F 70% 30.33 in 10.0 mi Calm Calm - N/A   Clear
8:53 PM 39.0 °F - 32.0 °F 76% 30.35 in 10.0 mi Calm Calm - N/A   Clear
9:53 PM 37.0 °F - 33.1 °F 86% 30.36 in 10.0 mi Calm Calm - N/A   Clear
10:53 PM 34.0 °F - 30.9 °F 89% 30.37 in 9.0 mi Calm Calm - N/A   Clear
11:53 PM 33.1 °F - 30.9 °F 92% 30.38 in 10.0 mi Calm Calm - N/A   Clear